CW9773 Weather Reports


Display with metric or nautical units.
time (UTC)temp
F
wind
direction
speed
MPH
gust
MPH
rain 1hr
in
rain 24hr
in
rain mn
in
humidity
%
barometer
mb
20260505003019 62 161 0.0 0.0 0.00 0.00 0.00 48 1012.4
20260505001541 63 161 0.0 0.0 0.00 0.00 0.00 47 1012.3
20260505000018 64 167 0.0 0.0 0.00 0.00 0.00 46 1012.4
20260504234532 64 159 0.0 0.0 0.00 0.00 0.00 45 1012.1
20260504233106 65 165 0.0 0.0 0.00 0.00 0.00 45 1012.1
20260504231532 66 192 0.0 0.0 0.00 0.00 0.00 44 1011.9
20260504230003 66 166 0.0 0.0 0.00 0.00 0.00 45 1011.8
20260504224537 67 148 0.0 0.0 0.00 0.00 0.00 44 1011.9
20260504223003 67 173 0.0 0.0 0.00 0.00 0.00 43 1011.9
20260504221538 68 171 0.0 0.0 0.00 0.00 0.00 43 1012.0
20260504220121 69 155 0.0 0.0 0.00 0.00 0.00 43 1012.0
20260504214531 70 158 0.0 0.0 0.00 0.00 0.00 42 1011.9
20260504213103 70 171 0.0 4.0 0.00 0.00 0.00 42 1012.0
20260504211528 71 164 0.0 0.0 0.00 0.00 0.00 43 1011.8
20260504210051 71 169 0.0 0.0 0.00 0.00 0.00 43 1011.8
20260504204528 73 154 0.0 0.0 0.00 0.00 0.00 42 1011.9
20260504203053 74 225 0.0 0.0 0.00 0.00 0.00 40 1012.0
20260504201522 76 193 0.0 0.0 0.00 0.00 0.00 41 1012.1
20260504200054 77 182 0.0 0.0 0.00 0.00 0.00 37 1012.4
20260504194520 79 242 0.0 1.0 0.00 0.00 0.00 37 1012.6
20260504193049 80 196 0.0 0.0 0.00 0.00 0.00 35 1012.6
20260504191532 81 173 0.0 0.0 0.00 0.00 0.00 37 1012.9
20260504190044 81 235 0.0 0.0 0.00 0.00 0.00 36 1013.1
20260504184614 80 293 0.0 0.0 0.00 0.00 0.00 36 1013.3
20260504183037 79 293 0.0 0.0 0.00 0.00 0.00 39 1013.5
20260504181548 79 197 0.0 7.0 0.00 0.00 0.00 37 1013.6
20260504180017 77 290 0.0 0.0 0.00 0.00 0.00 39 1013.6
20260504174538 76 239 0.0 0.0 0.00 0.00 0.00 42 1014.0
20260504173104 76 206 0.0 0.0 0.00 0.00 0.00 37 1014.1
20260504171528 76 207 0.0 0.0 0.00 0.00 0.00 39 1014.3
20260504100103 34 243 0.0 0.0 0.00 0.00 0.00 85 1016.1
20260504081511 35 243 0.0 0.0 0.00 0.00 0.00 84 1016.0
20260504044530 41 243 0.0 0.0 0.00 0.00 0.00 75 1016.3
20260504043040 41 243 0.0 0.0 0.00 0.00 0.00 74 1016.2
20260504041504 42 243 0.0 0.0 0.00 0.00 0.00 73 1016.2
20260504040034 42 243 0.0 0.0 0.00 0.00 0.00 73 1016.3
20260504034559 43 243 0.0 0.0 0.00 0.00 0.00 71 1016.2
20260504033010 44 243 0.0 0.0 0.00 0.00 0.00 70 1016.0
20260504031544 44 243 0.0 0.0 0.00 0.00 0.00 69 1016.0
20260504030020 45 243 0.0 0.0 0.00 0.00 0.00 67 1016.1
20260504024544 45 243 0.0 0.0 0.00 0.00 0.00 66 1016.3
20260504023025 46 243 0.0 0.0 0.00 0.00 0.00 64 1016.4
20260504021546 47 243 0.0 0.0 0.00 0.00 0.00 62 1016.3
20260504020017 47 243 0.0 0.0 0.00 0.00 0.00 60 1016.0
20260504014549 48 243 0.0 0.0 0.00 0.00 0.00 58 1015.8
20260504013013 49 243 0.0 0.0 0.00 0.00 0.00 56 1015.4
20260504011537 50 243 0.0 0.0 0.00 0.00 0.00 52 1015.3
20260504010015 51 243 0.0 0.0 0.00 0.00 0.00 51 1015.3
20260504004546 52 243 0.0 0.0 0.00 0.00 0.00 50 1015.2